Location: Vancouver
(49.2500°N, 123.1330°W)
Time: 06:03:42
(UTC-07:00)

Vanguard 2 Rocket - Visible Passes

Search period start: 20 October 2014 00:00
Search period end: 30 October 2014 00:00
Orbit: 554 x 3335 km, 32.9° (Epoch: 18 October)

Date Brightness Start Highest point End Pass type
(mag) Time Alt. Az. Time Alt. Az. Time Alt. Az.
20 Oct 8.9 05:04:07 15° S 05:06:46 19° SSE 05:12:38 10° ESE visible
21 Oct 9.3 04:09:10 12° SE 04:09:10 12° SE 04:11:32 10° SE visible
21 Oct 9.0 06:15:19 10° SW 06:20:50 26° S 06:29:09 10° ESE visible
22 Oct 8.7 05:20:07 17° SSW 05:22:41 21° SSE 05:28:51 10° ESE visible
23 Oct 9.0 04:25:09 15° SSE 04:25:09 15° SSE 04:28:32 10° SE visible
23 Oct 9.0 06:31:41 10° SW 06:36:57 24° S 06:44:41 10° SE visible
24 Oct 8.6 05:36:06 16° SSW 05:38:44 21° S 05:44:44 10° SE visible
25 Oct 8.8 04:41:08 16° SSE 04:41:08 16° SSE 04:44:51 10° SE visible
25 Oct 9.0 06:48:23 10° SW 06:53:08 20° S 06:59:45 10° SE visible
26 Oct 8.7 05:52:05 14° SSW 05:54:53 18° S 06:00:12 10° SE visible
27 Oct 8.8 04:57:08 16° S 04:57:08 16° S 05:00:41 10° SE visible
27 Oct 9.1 07:05:43 10° SW 07:09:23 15° S 07:14:00 10° SSE visible
28 Oct 8.8 06:08:06 10° SW 06:11:06 14° S 06:15:00 10° SSE visible
29 Oct 8.8 05:13:10 13° S 05:13:10 13° S 05:15:56 10° SSE visible
